Location: Moondance
(40.1328°N, 106.5113°W)
Time: 09:50:06
(UTC-06:00)

ISS - Visible Passes

Search period start: 21 September 2018 00:00
Search period end: 01 October 2018 00:00
Orbit: 403 x 408 km, 51.6° (Epoch: 21 September)

Date Brightness Start Highest point End Pass type
(mag) Time Alt. Az. Time Alt. Az. Time Alt. Az.
21 Sep -2.8 20:59:11 10° WSW 21:01:32 43° WSW 21:01:32 43° WSW visible
22 Sep -3.8 20:07:23 10° SW 20:10:37 59° SE 20:12:28 23° ENE visible
22 Sep -0.4 21:44:43 10° WNW 21:45:11 12° WNW 21:45:11 12° WNW visible
23 Sep -2.3 20:52:20 10° W 20:55:19 32° NNW 20:55:53 30° N visible
24 Sep -3.2 20:00:08 10° WSW 20:03:22 54° NNW 20:06:24 11° NE visible
24 Sep -0.5 21:38:28 10° NW 21:39:05 12° NW 21:39:05 12° NW visible
25 Sep -1.5 20:45:51 10° WNW 20:48:18 19° NNW 20:49:27 16° N visible
26 Sep -1.9 19:53:21 10° W 19:56:12 27° NNW 19:59:05 10° NE visible
26 Sep -0.4 21:32:16 10° NNW 21:32:23 10° NNW 21:32:23 10° NNW visible
27 Sep -1.1 20:39:34 10° NW 20:41:20 14° NNW 20:42:33 12° N visible
28 Sep -1.3 19:46:52 10° WNW 19:49:09 17° NNW 19:51:25 10° NNE visible
29 Sep -1.0 20:33:15 10° NNW 20:34:25 11° N 20:35:21 11° NNE visible
30 Sep -1.1 19:40:33 10° NW 19:42:08 13° N 19:43:43 10° NNE visible
